sat.trackr.live / text

‹ back to catalog

STARLINK-32455

NORAD 61632 · 2024-191M

PAYLOAD ACTIVE UNKNOWN

§ Identity

Operator
Country
US
Launch date
2024-10-23
Launch site
AFETR
Launch vehicle
Mass (kg)
RCS (m²)

Purposes: comms

External: N2YO · Heavens-Above · Gunter

§ Orbital elements

Epoch: 2026-05-25T04:42:08.172288Z

Period
94.27 min
Inclination
43.0020°
Eccentricity
0.0000724
Mean motion
15.27578762 rev/d
Perigee alt
482.6 km
Apogee alt
483.5 km
Semi-major
6,861.2 km
B*
2.4760e-5
RAAN
86.1959°
Arg perigee
263.9701°
Mean anomaly
96.1068°
Rev number
8,919

§ Raw data

STARLINK-324551 61632U 24191M   26145.19592792  .00000420  00000+0  24760-4 0  99952 61632  43.0020  86.1959 0000724 263.9701  96.1068 15.27578762 89195

JSON: /api/v1/satellites/61632 · /tle

For live sub-satellite position, see the globe view (requires WebGL).

§ Visibility from observer

Set your observer location to see the next 7 days of passes ≥ 10°. The values pass through the URL so the page stays shareable.

No JS? Fill the form by hand. The geolocation button needs JavaScript.